[[{"header":{"parameterUnit":"m.s-1","parameterCategory":1,"la1":30.2991,"la2":30.254,"lo1":-89.0895,"lo2":-89.0444,"dy":0.0017,"dx":0.0017,"nx":28,"ny":28,"refTime":"2023-10-02T21:00:00:Z","depth":0,"parameterNumber":2,"parameterNumberName":"U-component_of_WINDS"},"data":[0,0,0,0,0,0,0,0,0,0,0,0,0,0,0,0,0,0,0,0,0,0,0,0,0,0,0,0,0,0,0,0,0,0,0,0,0,0,0,0,0,0,0,0,0,0,0,0,0,0,0,0,0,0,0,0,0,0,-3.2457,-3.2458,0,-3.2516,-3.2516,-3.2517,-3.245,-3.2448,-3.2445,-3.2443,-3.2502,-3.2506,-3.251,0,0,0,0,0,0,0,0,0,0,0,0,0,-3.2286,-3.2289,-3.2457,-3.2458,-3.2459,-3.2516,-3.2517,-3.2517,-3.2451,-3.2447,-3.2444,-3.2441,-3.2501,-3.2506,-3.251,0,0,0,0,0,0,0,0,0,0,0,0,0,-3.2354,-3.2291,-3.2457,-3.2432,-3.243,-3.2516,-3.2517,-3.2518,-3.2451,-3.2447,-3.2444,-3.244,-3.2499,-3.2505,-3.2511,-3.2623,0,0,-3.2529,-3.2532,0,0,0,0,0,0,0,0,-3.235,-3.236,-3.2435,-3.2434,-3.2432,-3.2472,-3.2478,-3.2553,-3.2452,-3.2443,-3.2443,-3.2438,-3.2495,-3.2501,-3.252,-3.2626,-3.2629,-3.253,-3.2533,-3.2536,-3.2537,0,0,0,0,0,0,0,-3.2346,-3.2357,-3.248,-3.2436,-3.2435,-3.2418,-3.2423,-3.2492,-3.249,-3.2444,-3.2439,-3.2447,-3.2494,-3.2515,-3.2521,-3.263,-3.2529,-3.2535,-3.2538,-3.2541,-3.2828,-3.2832,0,0,0,0,0,0,-3.2344,-3.2354,-3.2478,-3.2482,-3.2381,-3.2424,-3.243,-3.2463,-3.2489,-3.2489,-3.245,-3.2444,-3.2507,-3.2515,-3.2523,-3.2655,-3.2536,-3.2541,-3.2545,-3.2824,-3.2829,-3.2834,0,0,0,0,0,0,-3.234,-3.2356,-3.2476,-3.2417,-3.2431,-3.2431,-3.2468,-3.2466,-3.2487,-3.2494,-3.2493,-3.2472,-3.2504,-3.2515,-3.2599,-3.2656,-3.2544,-3.2549,-3.282,-3.2826,-3.2832,-3.2921,0,0,0,0,0,0,-3.2336,-3.2355,-3.2398,-3.2418,-3.2434,-3.2551,-3.2472,-3.247,-3.2498,-3.249,-3.2514,-3.2515,-3.2502,-3.259,-3.2604,-3.2662,-3.2554,-3.2814,-3.2822,-3.283,-3.2913,-3.2929,-3.2944,0,0,0,0,0,-3.233,-3.2421,-3.24,-3.2416,-3.2488,-3.2555,-3.2564,-3.2547,-3.2503,-3.2546,-3.2549,-3.2514,-3.2648,-3.2599,-3.2615,-3.2676,-3.2811,-3.282,-3.2829,-3.2906,-3.2926,-3.2943,0,0,0,0,0,0,-3.2408,-3.2423,-3.2401,-3.2501,-3.2527,-3.2543,-3.2597,-3.2569,-3.2609,-3.26,-3.2577,-3.2583,-3.2672,-3.2682,-3.2628,-3.2785,-3.2722,-3.2735,-3.2775,-3.2794,-3.2809,-3.2805,-3.2559,0,0,0,0,0,-3.2436,-3.2489,-3.25,-3.2587,-3.2602,-3.2597,-3.2626,-3.2611,-3.2637,-3.2647,-3.2657,-3.2684,-3.2731,-3.2763,-3.2808,-3.2914,-3.2918,-3.2963,-3.2979,-3.2991,-3.3002,-3.3058,-3.3078,-3.2864,-3.2864,-3.2864,0,0,-3.2496,-3.2511,-3.2546,-3.2603,-3.2622,-3.2676,-3.2607,-3.2668,-3.2708,-3.2656,-3.2736,-3.2744,-3.2772,-3.2867,-3.2909,-3.2878,-3.3062,-3.3003,-3.3013,-3.3017,-3.3069,-3.309,-3.3108,-3.287,-3.2869,-3.2868,0,0,-3.2633,-3.2651,-3.2725,-3.2744,-3.2773,-3.2769,-3.2787,-3.2807,-3.2811,-3.289,-3.2852,-3.2899,-3.2983,-3.3004,-3.3025,-3.3169,-3.3138,-3.3184,-3.3264,-3.3319,-3.3336,-3.335,-3.3401,-3.3419,-3.3196,-3.3196,-3.3196,0,-3.2704,-3.2786,-3.2766,-3.283,-3.2856,-3.2811,-3.2885,-3.2905,-3.2947,-3.2966,-3.293,-3.3033,-3.3049,-3.3147,-3.3182,-3.3202,-3.3221,-3.3181,-3.3335,-3.335,-3.3363,-3.3411,-3.343,-3.3201,-3.3201,-3.32,-3.3199,0,-3.2871,-3.2928,-3.2984,-3.3025,-3.3057,-3.3126,-3.3117,-3.3151,-3.3133,-3.3133,-3.3214,-3.3231,-3.3278,-3.33,-3.3284,-3.3397,-3.3376,-3.3338,-3.3274,-3.3389,-3.3434,-3.3452,-3.3209,-3.3207,-3.3205,-3.3204,0,0,-3.3059,-3.3088,-3.3109,-3.3126,-3.3154,-3.3197,-3.3263,-3.3309,-3.3338,-3.3369,-3.3423,-3.3494,-3.3459,-3.3483,-3.3469,-3.3517,-3.3628,-3.3473,-3.3473,-3.35,-3.3752,-3.378,-3.3802,-3.3608,-3.3611,-3.3614,-3.375,0,-3.3196,-3.3311,-3.3295,-3.3405,-3.3456,-3.3414,-3.3472,-3.3495,-3.3496,-3.354,-3.3541,-3.3591,-3.3542,-3.3556,-3.3602,-3.3605,-3.3678,-3.3595,-3.3657,-3.366,-3.3651,-3.3825,-3.3855,-3.3982,-3.3767,-3.377,-3.3772,0,-3.3371,-3.3407,-3.3522,-3.354,-3.3561,-3.3613,-3.3653,-3.3696,-3.372,-3.3718,-3.3745,-3.3721,-3.3787,-3.3722,-3.3812,-3.3756,-3.378,-3.3785,-3.379,-3.3794,-3.3722,-3.3833,-3.4023,-3.4041,-3.3799,-3.3797,-3.3795,0,-3.3495,-3.3572,-3.3651,-3.3667,-3.3691,-3.3728,-3.374,-3.3761,-3.3789,-3.3823,-3.3841,-3.3883,-3.3906,-3.3939,-3.3927,-3.3881,-3.4019,-3.3953,-3.4018,-3.4018,-3.4048,-3.4046,-3.4243,-3.4065,-3.4065,-3.4065,-3.4064,0,-3.3649,-3.3721,-3.3707,-3.3755,-3.3834,-3.3815,-3.3893,-3.39,-3.3919,-3.3967,-3.3933,-3.3979,-3.3961,-3.4006,-3.3997,-3.4071,-3.4082,-3.4082,-3.4078,-3.4084,-3.4084,-3.41,-3.409,-3.407,-3.4069,-3.4068,-3.4067,0,-3.3802,-3.3795,-3.3878,-3.3893,-3.3898,-3.3956,-3.3969,-3.4014,-3.4012,-3.4073,-3.4087,-3.4085,-3.4135,-3.4127,-3.4183,-3.4177,-3.427,-3.4256,-3.4262,-3.4258,-3.4323,-3.4317,-3.4536,-3.4563,-3.4369,-3.437,-3.4372,0,-3.39,-3.3954,-3.3975,-3.4005,-3.4019,-3.4068,-3.4095,-3.4078,-3.4109,-3.414,-3.4181,-3.4229,-3.4266,-3.4349,-3.4352,-3.4395,-3.4381,-3.4455,-3.4387,-3.4391,-3.4381,-3.4378,-3.4383,-3.4468,-3.4471,-3.4472,-3.4474,0,-3.4075,-3.4069,-3.411,-3.4151,-3.4185,-3.4216,-3.4244,-3.427,-3.4255,-3.4291,-3.4342,-3.4371,-3.4428,-3.4476,-3.4515,-3.4526,-3.4498,-3.4495,-3.4512,-3.4518,-3.4519,-3.4519,-3.4297,-3.449,-3.4488,-3.4487,-3.4486,-3.4486,-3.4203,-3.4249,-3.427,-3.4317,-3.4336,-3.4362,-3.4405,-3.4408,-3.4451,-3.4495,-3.4483,-3.4541,-3.4563,-3.4613,-3.4629,-3.4673,-3.4646,-3.4671,-3.4677,-3.4683,-3.4691,-3.4512,-3.4681,-3.468,-3.468,-3.4679,-3.4679,0,-3.4375,-3.4387,-3.443,-3.447,-3.4507,-3.4476,-3.4505,-3.4537,-3.4589,-3.4612,-3.4649,-3.4707,-3.4753,-3.4759,-3.4802,-3.4837,-3.4824,-3.4848,-3.4845,-3.4848,-3.4713,-3.4694,-3.4858,-3.4858,-3.4857,-3.4857,-3.4857,-3.4857,-3.447,-3.4545,-3.4541,-3.4624,-3.4635,-3.4691,-3.471,-3.4734,-3.4752,-3.4819,-3.4856,-3.486,-3.4876,-3.492,-3.496,-3.4961,-3.4978,-3.5007,-3.5002,-3.4876,-3.4858,-3.4841,-3.4822,-3.5011,-3.5011,-3.5133,-3.5135,-3.5135]},{"header":{"parameterUnit":"m.s-1","parameterCategory":1,"la1":30.2991,"la2":30.254,"lo1":-89.0895,"lo2":-89.0444,"dy":0.0017,"dx":0.0017,"nx":28,"ny":28,"refTime":"2023-10-02T21:00:00:Z","depth":0,"parameterNumber":3,"parameterNumberName":"V-component_of_WINDS"},"data":[0,0,0,0,0,0,0,0,0,0,0,0,0,0,0,0,0,0,0,0,0,0,0,0,0,0,0,0,0,0,0,0,0,0,0,0,0,0,0,0,0,0,0,0,0,0,0,0,0,0,0,0,0,0,0,0,0,0,1.0197,1.0196,0,1.0088,1.0087,1.0085,0.9989,0.9988,0.9987,0.9986,0.9869,0.9867,0.9865,0,0,0,0,0,0,0,0,0,0,0,0,0,1.0317,1.0316,1.0197,1.0196,1.0194,1.0088,1.0087,1.0085,0.999,0.9988,0.9987,0.9986,0.9869,0.9867,0.9864,0,0,0,0,0,0,0,0,0,0,0,0,0,1.0242,1.0315,1.0197,1.0134,1.0127,1.0088,1.0087,1.0085,0.999,0.9988,0.9987,0.9985,0.987,0.9867,0.9864,0.9877,0,0,0.9854,0.9853,0,0,0,0,0,0,0,0,1.0247,1.0238,1.0145,1.0138,1.0131,1.0051,1.0086,1.0015,0.999,1.0042,0.9986,0.9984,0.993,0.9922,0.9905,0.9872,0.9867,0.9854,0.9852,0.9851,0.985,0,0,0,0,0,0,0,1.0252,1.0242,1.0153,1.0143,1.0135,1.0109,1.0097,1.0072,0.9996,1.0037,1.003,1.0019,0.9926,0.9908,0.9902,0.9865,0.9854,0.9851,0.9849,0.9848,0.9836,0.9838,0,0,0,0,0,0,1.0268,1.0247,1.0157,1.015,1.0186,1.0109,1.0095,1.0078,0.9996,0.9983,1.002,1.0015,0.9915,0.9905,0.9897,0.9907,0.9851,0.9848,0.9846,0.9835,0.9837,0.9839,0,0,0,0,0,0,1.0271,1.0261,1.0161,1.0197,1.0182,1.0108,1.009,1.0077,1.0059,0.9984,0.9969,1.0016,0.9913,0.9901,0.9883,0.9901,0.9846,0.9844,0.9833,0.9835,0.9838,0.9927,0,0,0,0,0,0,1.0275,1.0262,1.0268,1.0198,1.0181,1.0151,1.0091,1.0076,1.0054,1.0046,0.9976,0.9963,0.9911,0.9888,0.988,0.9896,0.9841,0.9831,0.9834,0.9837,0.9922,0.9932,0.994,0,0,0,0,0,1.0279,1.0296,1.0268,1.0258,1.0186,1.0153,1.0143,1.0084,1.0056,1.006,1.0012,0.9965,0.9901,0.9887,0.9877,0.9892,0.983,0.9833,0.9837,0.9917,0.993,0.994,0,0,0,0,0,0,1.0367,1.0285,1.0254,1.0249,1.0209,1.0136,1.014,1.0099,1.0064,1.0057,0.9984,0.9969,0.9959,0.9923,0.991,0.99,0.9859,0.9861,0.9924,0.9935,0.9944,0.9952,0.9838,0,0,0,0,0,1.0387,1.0368,1.0296,1.0299,1.028,1.0214,1.0197,1.0156,1.011,1.0092,1.0042,0.9998,0.9968,0.995,0.9918,0.9917,0.9899,0.9922,0.9931,0.9939,0.9941,0.9937,0.9946,0.985,0.985,0.985,0,0,1.0425,1.0378,1.037,1.0315,1.0279,1.026,1.02,1.0182,1.0166,1.0088,1.0068,1.0031,0.9977,0.9968,0.9961,0.9938,0.9964,0.9944,0.9951,0.9948,0.9942,0.9951,0.9959,0.9853,0.9852,0.9852,0,0,1.0486,1.0449,1.0447,1.0412,1.0359,1.0315,1.0315,1.0249,1.0222,1.0202,1.0143,1.0122,1.0072,1.0036,1.0011,1.006,1.0015,1.0052,1.01,1.0097,1.0105,1.0111,1.0127,1.0134,1.0054,1.0054,1.0054,0,1.054,1.051,1.045,1.0436,1.0413,1.0344,1.0341,1.031,1.0248,1.0233,1.0209,1.0145,1.0104,1.0085,1.0097,1.008,1.0076,1.0059,1.0109,1.0114,1.0119,1.0134,1.0141,1.0059,1.0058,1.0058,1.0058,0,1.0579,1.0559,1.0563,1.0509,1.0486,1.0477,1.0415,1.0399,1.036,1.0318,1.0298,1.0246,1.0203,1.0196,1.0156,1.0171,1.0158,1.0123,1.0079,1.0134,1.0147,1.0152,1.0066,1.0064,1.0063,1.0061,0,0,1.069,1.0604,1.0606,1.058,1.0518,1.05,1.0488,1.0448,1.0436,1.0396,1.0383,1.0343,1.031,1.0282,1.0238,1.0236,1.0277,1.02,1.0197,1.0215,1.0289,1.0316,1.0324,1.0248,1.0249,1.0249,1.0293,0,1.0739,1.0716,1.0662,1.0654,1.0635,1.057,1.0559,1.0519,1.048,1.0456,1.0412,1.0385,1.0343,1.0326,1.0321,1.0273,1.0291,1.0269,1.0233,1.0233,1.0248,1.033,1.0358,1.0402,1.0298,1.0299,1.0299,0,1.0793,1.076,1.0751,1.0691,1.068,1.0672,1.0631,1.061,1.0562,1.0534,1.0504,1.0456,1.0439,1.04,1.0374,1.0361,1.0343,1.0317,1.0317,1.031,1.0269,1.0325,1.0415,1.0421,1.0307,1.0306,1.0306,0,1.0875,1.0827,1.0816,1.0796,1.0725,1.0721,1.069,1.0642,1.0621,1.0585,1.057,1.0532,1.051,1.0481,1.0424,1.0401,1.0404,1.036,1.0378,1.038,1.038,1.0381,1.0468,1.0371,1.0371,1.0371,1.0371,0,1.0934,1.0931,1.0852,1.0845,1.0839,1.0777,1.0772,1.0736,1.0693,1.0677,1.0618,1.0603,1.0529,1.0505,1.046,1.0445,1.0436,1.0411,1.0399,1.0416,1.0419,1.0402,1.0397,1.0373,1.0372,1.0372,1.0372,0,1.1023,1.097,1.0953,1.0888,1.0872,1.0871,1.0814,1.0804,1.0762,1.0742,1.0733,1.0667,1.0636,1.0577,1.0529,1.0499,1.0493,1.0472,1.051,1.0502,1.0523,1.0522,1.0601,1.0608,1.0509,1.051,1.0511,0,1.1065,1.1061,1.0997,1.0982,1.0955,1.0933,1.0912,1.0851,1.0832,1.0778,1.0774,1.074,1.0708,1.0662,1.0608,1.0571,1.0549,1.0579,1.0542,1.056,1.0548,1.0548,1.0547,1.0587,1.0588,1.0589,1.059,0,1.1143,1.1118,1.1091,1.1056,1.1034,1.1002,1.0968,1.0959,1.0889,1.087,1.084,1.0816,1.0768,1.0734,1.0689,1.0656,1.0611,1.0603,1.0605,1.0621,1.0643,1.0631,1.0531,1.0601,1.06,1.0599,1.0598,1.0598,1.1209,1.1203,1.1157,1.1129,1.1097,1.1067,1.1054,1.1012,1.0986,1.0944,1.0909,1.0881,1.0833,1.077,1.0739,1.0715,1.0694,1.0697,1.0697,1.0699,1.0705,1.0648,1.0707,1.0706,1.0706,1.0706,1.0706,0,1.1283,1.1251,1.1227,1.1182,1.116,1.1123,1.1083,1.1066,1.1043,1.1004,1.0975,1.094,1.0907,1.0851,1.0813,1.0805,1.0783,1.0797,1.0796,1.0789,1.0727,1.0729,1.0815,1.0815,1.0815,1.0815,1.0815,1.0815,1.132,1.1308,1.1277,1.1248,1.1215,1.1189,1.1169,1.114,1.1108,1.1072,1.1045,1.101,1.0964,1.0922,1.089,1.0874,1.0862,1.0882,1.086,1.0803,1.0793,1.0783,1.0785,1.0881,1.0881,1.0923,1.0924,1.0924]}]]